Time,TemperatureF,DewpointF,PressureIn,WindDirection,WindDirectionDegrees,WindSpeedMPH,WindSpeedGustMPH,Humidity,HourlyPrecipIn,Conditions,Clouds,dailyrainin,SoftwareType,DateUTC
2013-07-14 00:02:00,68.0,66.0,30.29,WNW,297,0.0,1.0,93,0.00,,,0.00,,2013-07-14 04:02:00,
2013-07-14 00:11:00,68.0,66.0,30.29,West,277,0.0,0.0,94,0.00,,,0.00,,2013-07-14 04:11:00,
2013-07-14 00:22:00,68.0,66.0,30.29,West,277,0.0,0.0,94,0.00,,,0.00,,2013-07-14 04:22:00,
2013-07-14 00:32:00,68.0,66.0,30.29,North,355,0.0,1.0,93,0.00,,,0.00,,2013-07-14 04:32:00,
2013-07-14 00:42:00,68.0,66.0,30.30,West,262,0.0,1.0,94,0.00,,,0.00,,2013-07-14 04:42:00,
2013-07-14 00:54:00,68.0,66.0,30.30,West,262,0.0,1.0,94,0.00,,,0.00,,2013-07-14 04:54:00,
2013-07-14 01:02:00,68.0,66.0,30.30,WNW,285,0.0,1.0,93,0.00,,,0.00,,2013-07-14 05:02:00,
2013-07-14 01:23:00,68.0,66.0,30.30,WNW,285,0.0,1.0,93,0.00,,,0.00,,2013-07-14 05:23:00,
2013-07-14 01:32:00,68.0,66.0,30.30,NNW,337,0.0,2.0,93,0.00,,,0.00,,2013-07-14 05:32:00,
2013-07-14 01:43:00,67.0,65.0,30.30,NW,315,0.0,1.0,94,0.00,,,0.00,,2013-07-14 05:43:00,
2013-07-14 01:53:00,67.0,65.0,30.30,NW,315,0.0,1.0,94,0.00,,,0.00,,2013-07-14 05:53:00,
2013-07-14 02:01:00,67.0,65.0,30.29,West,271,0.0,1.0,94,0.00,,,0.00,,2013-07-14 06:01:00,
2013-07-14 02:12:00,67.0,65.0,30.29,West,270,0.0,1.0,94,0.00,,,0.00,,2013-07-14 06:12:00,
2013-07-14 02:22:00,67.0,65.0,30.29,West,270,0.0,1.0,94,0.00,,,0.00,,2013-07-14 06:22:00,
2013-07-14 02:32:00,67.0,65.0,30.29,West,271,0.0,0.0,94,0.00,,,0.00,,2013-07-14 06:32:00,
2013-07-14 02:42:00,66.0,64.0,30.29,West,271,0.0,0.0,94,0.00,,,0.00,,2013-07-14 06:42:00,
2013-07-14 02:53:00,66.0,64.0,30.29,West,271,0.0,0.0,94,0.00,,,0.00,,2013-07-14 06:53:00,
2013-07-14 03:02:00,66.0,64.0,30.29,West,270,0.0,0.0,94,0.00,,,0.00,,2013-07-14 07:02:00,
2013-07-14 03:22:00,66.0,65.0,30.29,West,271,0.0,0.0,95,0.00,,,0.00,,2013-07-14 07:22:00,
2013-07-14 03:33:00,65.0,64.0,30.30,West,271,0.0,0.0,95,0.00,,,0.00,,2013-07-14 07:33:00,
2013-07-14 03:43:00,65.0,64.0,30.30,West,271,0.0,1.0,95,0.00,,,0.00,,2013-07-14 07:43:00,
2013-07-14 03:53:00,65.0,64.0,30.30,West,271,0.0,1.0,95,0.00,,,0.00,,2013-07-14 07:53:00,
2013-07-14 04:01:00,65.0,64.0,30.30,West,269,0.0,1.0,95,0.00,,,0.00,,2013-07-14 08:01:00,
2013-07-14 04:22:00,65.0,64.0,30.30,WNW,297,0.0,0.0,95,0.00,,,0.00,,2013-07-14 08:22:00,
2013-07-14 04:32:00,65.0,64.0,30.30,WNW,296,0.0,0.0,95,0.00,,,0.00,,2013-07-14 08:32:00,
2013-07-14 04:42:00,64.0,63.0,30.30,WNW,296,0.0,0.0,95,0.00,,,0.00,,2013-07-14 08:42:00,
2013-07-14 04:53:00,64.0,63.0,30.30,WNW,296,0.0,0.0,95,0.00,,,0.00,,2013-07-14 08:53:00,
2013-07-14 05:01:00,65.0,64.0,30.30,WNW,296,0.0,0.0,95,0.00,,,0.00,,2013-07-14 09:01:00,
2013-07-14 05:11:00,65.0,64.0,30.31,WNW,297,0.0,0.0,95,0.00,,,0.00,,2013-07-14 09:11:00,
2013-07-14 05:22:00,65.0,64.0,30.31,WNW,297,0.0,0.0,95,0.00,,,0.00,,2013-07-14 09:22:00,
2013-07-14 05:32:00,65.0,64.0,30.31,WNW,297,0.0,0.0,95,0.00,,,0.00,,2013-07-14 09:32:00,
2013-07-14 05:42:00,65.0,64.0,30.31,WNW,297,0.0,0.0,95,0.00,,,0.00,,2013-07-14 09:42:00,
2013-07-14 05:53:00,65.0,64.0,30.31,WNW,297,0.0,0.0,95,0.00,,,0.00,,2013-07-14 09:53:00,
2013-07-14 06:01:00,65.0,64.0,30.32,WNW,297,0.0,1.0,95,0.00,,,0.00,,2013-07-14 10:01:00,
2013-07-14 06:12:00,65.0,64.0,30.32,WNW,297,0.0,0.0,95,0.00,,,0.00,,2013-07-14 10:12:00,
2013-07-14 06:22:00,65.0,64.0,30.32,WNW,297,0.0,0.0,95,0.00,,,0.00,,2013-07-14 10:22:00,
2013-07-14 06:32:00,65.0,64.0,30.32,NNW,330,0.0,1.0,95,0.00,,,0.00,,2013-07-14 10:32:00,
2013-07-14 06:42:00,65.0,64.0,30.33,NW,322,0.0,0.0,95,0.00,,,0.00,,2013-07-14 10:42:00,
2013-07-14 06:53:00,65.0,64.0,30.33,NW,322,0.0,0.0,95,0.00,,,0.00,,2013-07-14 10:53:00,
2013-07-14 07:02:00,66.0,65.0,30.33,North,354,0.0,2.0,95,0.00,,,0.00,,2013-07-14 11:02:00,
2013-07-14 07:11:00,66.0,65.0,30.33,North,354,0.0,0.0,95,0.00,,,0.00,,2013-07-14 11:11:00,
2013-07-14 07:22:00,66.0,65.0,30.33,North,354,0.0,0.0,95,0.00,,,0.00,,2013-07-14 11:22:00,
2013-07-14 07:32:00,67.0,66.0,30.33,North,354,0.0,0.0,95,0.00,,,0.00,,2013-07-14 11:32:00,
2013-07-14 07:43:00,68.0,66.0,30.34,North,354,0.0,0.0,93,0.00,,,0.00,,2013-07-14 11:43:00,
2013-07-14 07:53:00,68.0,66.0,30.34,North,354,0.0,0.0,93,0.00,,,0.00,,2013-07-14 11:53:00,
2013-07-14 08:02:00,68.0,66.0,30.34,North,354,0.0,0.0,93,0.00,,,0.00,,2013-07-14 12:02:00,
2013-07-14 08:12:00,70.0,67.0,30.34,SE,136,0.0,1.0,91,0.00,,,0.00,,2013-07-14 12:12:00,
2013-07-14 08:22:00,70.0,67.0,30.34,SE,136,0.0,1.0,91,0.00,,,0.00,,2013-07-14 12:22:00,
2013-07-14 08:33:00,72.0,69.0,30.34,ESE,106,1.0,2.0,89,0.00,,,0.00,,2013-07-14 12:33:00,
2013-07-14 08:52:00,73.0,69.0,30.34,ENE,70,1.0,3.0,87,0.00,,,0.00,,2013-07-14 12:52:00,
2013-07-14 09:01:00,74.0,70.0,30.33,East,96,1.0,3.0,86,0.00,,,0.00,,2013-07-14 13:01:00,
2013-07-14 09:11:00,75.0,71.0,30.33,SE,138,1.0,4.0,86,0.00,,,0.00,,2013-07-14 13:11:00,
2013-07-14 09:22:00,75.0,71.0,30.33,SE,138,1.0,4.0,86,0.00,,,0.00,,2013-07-14 13:22:00,
2013-07-14 09:32:00,77.0,71.0,30.33,ESE,114,1.0,4.0,81,0.00,,,0.00,,2013-07-14 13:32:00,
2013-07-14 09:42:00,77.0,71.0,30.33,East,98,2.0,5.0,82,0.00,,,0.00,,2013-07-14 13:42:00,
2013-07-14 09:53:00,77.0,71.0,30.33,East,98,2.0,5.0,82,0.00,,,0.00,,2013-07-14 13:53:00,
2013-07-14 10:02:00,77.0,71.0,30.32,ENE,75,2.0,5.0,81,0.00,,,0.00,,2013-07-14 14:02:00,
2013-07-14 10:11:00,77.0,71.0,30.32,ENE,61,0.0,6.0,82,0.00,,,0.00,,2013-07-14 14:11:00,
2013-07-14 10:33:00,79.0,72.0,30.32,ESE,105,0.0,5.0,79,0.00,,,0.00,,2013-07-14 14:33:00,
2013-07-14 10:43:00,80.0,72.0,30.32,SSE,148,0.0,4.0,78,0.00,,,0.00,,2013-07-14 14:43:00,
2013-07-14 10:53:00,80.0,72.0,30.32,SSE,148,0.0,4.0,78,0.00,,,0.00,,2013-07-14 14:53:00,
2013-07-14 11:01:00,82.0,74.0,30.31,NW,312,0.0,5.0,76,0.00,,,0.00,,2013-07-14 15:01:00,
2013-07-14 11:12:00,82.0,72.0,30.30,ESE,108,2.0,6.0,71,0.00,,,0.00,,2013-07-14 15:12:00,
2013-07-14 11:22:00,82.0,72.0,30.30,ESE,108,2.0,6.0,71,0.00,,,0.00,,2013-07-14 15:22:00,
2013-07-14 11:32:00,83.0,72.0,30.30,SE,145,1.0,4.0,70,0.00,,,0.00,,2013-07-14 15:32:00,
2013-07-14 11:42:00,83.0,71.0,30.30,ESE,111,2.0,4.0,68,0.00,,,0.00,,2013-07-14 15:42:00,
2013-07-14 11:53:00,83.0,71.0,30.30,ESE,111,2.0,4.0,68,0.00,,,0.00,,2013-07-14 15:53:00,
2013-07-14 12:01:00,84.0,71.0,30.30,ESE,117,2.0,5.0,65,0.00,,,0.00,,2013-07-14 16:01:00,
2013-07-14 12:11:00,84.0,72.0,30.30,East,96,0.0,3.0,67,0.00,,,0.00,,2013-07-14 16:11:00,
2013-07-14 12:22:00,84.0,72.0,30.30,East,96,0.0,3.0,67,0.00,,,0.00,,2013-07-14 16:22:00,
2013-07-14 12:32:00,84.0,72.0,30.29,ENE,58,0.0,1.0,67,0.00,,,0.00,,2013-07-14 16:32:00,
2013-07-14 12:43:00,83.0,71.0,30.29,WNW,293,0.0,1.0,68,0.00,,,0.00,,2013-07-14 16:43:00,
2013-07-14 12:53:00,83.0,71.0,30.29,WNW,293,0.0,1.0,68,0.00,,,0.00,,2013-07-14 16:53:00,
2013-07-14 13:03:00,83.0,71.0,30.29,ESE,105,0.0,2.0,68,0.00,,,0.00,,2013-07-14 17:03:00,
2013-07-14 13:11:00,85.0,72.0,30.28,WNW,288,0.0,3.0,66,0.00,,,0.00,,2013-07-14 17:11:00,
2013-07-14 13:22:00,85.0,72.0,30.28,WNW,288,0.0,3.0,66,0.00,,,0.00,,2013-07-14 17:22:00,
2013-07-14 13:32:00,86.0,71.0,30.28,ESE,108,0.0,3.0,61,0.00,,,0.00,,2013-07-14 17:32:00,
2013-07-14 13:43:00,85.0,71.0,30.28,West,266,0.0,2.0,64,0.00,,,0.00,,2013-07-14 17:43:00,
2013-07-14 13:53:00,85.0,71.0,30.28,West,266,0.0,2.0,64,0.00,,,0.00,,2013-07-14 17:53:00,
2013-07-14 14:01:00,85.0,71.0,30.27,WNW,298,0.0,6.0,64,0.00,,,0.00,,2013-07-14 18:01:00,
2013-07-14 14:11:00,85.0,71.0,30.27,ESE,117,1.0,4.0,64,0.00,,,0.00,,2013-07-14 18:11:00,
2013-07-14 14:22:00,85.0,71.0,30.27,ESE,117,1.0,4.0,64,0.00,,,0.00,,2013-07-14 18:22:00,
2013-07-14 14:32:00,87.0,72.0,30.27,ESE,120,0.0,3.0,62,0.00,,,0.00,,2013-07-14 18:32:00,
2013-07-14 14:42:00,86.0,72.0,30.27,ENE,66,0.0,4.0,63,0.00,,,0.00,,2013-07-14 18:42:00,
2013-07-14 14:52:00,86.0,72.0,30.27,ENE,66,0.0,4.0,63,0.00,,,0.00,,2013-07-14 18:52:00,
2013-07-14 15:02:00,85.0,71.0,30.26,West,278,2.0,9.0,64,0.00,,,0.00,,2013-07-14 19:02:00,
2013-07-14 15:22:00,85.0,71.0,30.26,West,266,1.0,4.0,63,0.00,,,0.00,,2013-07-14 19:22:00,
2013-07-14 15:32:00,85.0,72.0,30.26,NW,325,0.0,4.0,65,0.00,,,0.00,,2013-07-14 19:32:00,
2013-07-14 15:43:00,85.0,72.0,30.25,NNE,26,0.0,3.0,65,0.00,,,0.00,,2013-07-14 19:43:00,
2013-07-14 15:53:00,85.0,72.0,30.25,NNE,26,0.0,3.0,65,0.00,,,0.00,,2013-07-14 19:53:00,
2013-07-14 16:02:00,86.0,72.0,30.25,ESE,115,1.0,2.0,64,0.00,,,0.00,,2013-07-14 20:02:00,
2013-07-14 16:11:00,87.0,72.0,30.25,East,96,1.0,4.0,61,0.00,,,0.00,,2013-07-14 20:11:00,
2013-07-14 16:22:00,87.0,72.0,30.25,East,96,1.0,4.0,61,0.00,,,0.00,,2013-07-14 20:22:00,
2013-07-14 16:32:00,87.0,72.0,30.24,West,269,2.0,4.0,61,0.00,,,0.00,,2013-07-14 20:32:00,
2013-07-14 16:43:00,87.0,70.0,30.24,WNW,284,3.0,9.0,58,0.00,,,0.00,,2013-07-14 20:43:00,
2013-07-14 16:53:00,87.0,70.0,30.24,WNW,284,3.0,9.0,58,0.00,,,0.00,,2013-07-14 20:53:00,
2013-07-14 17:02:00,88.0,71.0,30.24,NNE,13,2.0,6.0,57,0.00,,,0.00,,2013-07-14 21:02:00,
2013-07-14 17:11:00,88.0,71.0,30.23,WNW,296,1.0,5.0,57,0.00,,,0.00,,2013-07-14 21:11:00,
2013-07-14 17:22:00,88.0,71.0,30.23,WNW,296,1.0,5.0,57,0.00,,,0.00,,2013-07-14 21:22:00,
2013-07-14 17:32:00,88.0,71.0,30.23,WNW,297,0.0,5.0,57,0.00,,,0.00,,2013-07-14 21:32:00,
2013-07-14 17:43:00,87.0,70.0,30.23,West,268,1.0,7.0,57,0.00,,,0.00,,2013-07-14 21:43:00,
2013-07-14 17:52:00,87.0,70.0,30.23,West,268,1.0,7.0,57,0.00,,,0.00,,2013-07-14 21:52:00,
2013-07-14 18:01:00,87.0,70.0,30.23,WNW,288,0.0,5.0,57,0.00,,,0.00,,2013-07-14 22:01:00,
2013-07-14 18:22:00,88.0,69.0,30.23,WSW,252,2.0,5.0,54,0.00,,,0.00,,2013-07-14 22:22:00,
2013-07-14 18:32:00,87.0,69.0,30.24,WNW,299,1.0,5.0,56,0.00,,,0.00,,2013-07-14 22:32:00,
2013-07-14 18:42:00,87.0,70.0,30.23,WSW,249,0.0,3.0,57,0.00,,,0.00,,2013-07-14 22:42:00,
2013-07-14 18:53:00,87.0,70.0,30.23,WSW,249,0.0,3.0,57,0.00,,,0.00,,2013-07-14 22:53:00,
2013-07-14 19:02:00,87.0,69.0,30.23,WNW,291,2.0,4.0,55,0.00,,,0.00,,2013-07-14 23:02:00,
2013-07-14 19:11:00,86.0,69.0,30.23,West,276,0.0,4.0,57,0.00,,,0.00,,2013-07-14 23:11:00,
2013-07-14 19:22:00,86.0,69.0,30.23,West,276,0.0,4.0,57,0.00,,,0.00,,2013-07-14 23:22:00,
2013-07-14 19:32:00,86.0,69.0,30.23,West,265,0.0,5.0,57,0.00,,,0.00,,2013-07-14 23:32:00,
2013-07-14 19:42:00,86.0,69.0,30.23,NW,312,0.0,0.0,58,0.00,,,0.00,,2013-07-14 23:42:00,
2013-07-14 19:53:00,86.0,69.0,30.23,NW,312,0.0,0.0,58,0.00,,,0.00,,2013-07-14 23:53:00,
2013-07-14 20:02:00,86.0,70.0,30.23,West,273,0.0,2.0,60,0.00,,,0.00,,2013-07-15 00:02:00,
2013-07-14 20:11:00,83.0,70.0,30.23,West,273,0.0,0.0,66,0.00,,,0.00,,2013-07-15 00:11:00,
2013-07-14 20:22:00,83.0,70.0,30.23,West,273,0.0,0.0,66,0.00,,,0.00,,2013-07-15 00:22:00,
2013-07-14 20:32:00,80.0,70.0,30.23,West,273,0.0,0.0,72,0.00,,,0.00,,2013-07-15 00:32:00,
2013-07-14 20:43:00,78.0,70.0,30.23,West,272,0.0,0.0,77,0.00,,,0.00,,2013-07-15 00:43:00,
2013-07-14 20:53:00,78.0,70.0,30.23,West,272,0.0,0.0,77,0.00,,,0.00,,2013-07-15 00:53:00,
2013-07-14 21:01:00,77.0,70.0,30.23,West,274,0.0,0.0,79,0.00,,,0.00,,2013-07-15 01:01:00,
2013-07-14 21:11:00,75.0,69.0,30.24,West,273,0.0,0.0,82,0.00,,,0.00,,2013-07-15 01:11:00,
2013-07-14 21:22:00,75.0,69.0,30.24,West,273,0.0,0.0,82,0.00,,,0.00,,2013-07-15 01:22:00,
2013-07-14 21:32:00,75.0,71.0,30.24,West,273,0.0,0.0,86,0.00,,,0.00,,2013-07-15 01:32:00,
2013-07-14 21:43:00,75.0,71.0,30.24,West,273,0.0,0.0,86,0.00,,,0.00,,2013-07-15 01:43:00,
2013-07-14 21:53:00,75.0,71.0,30.24,West,273,0.0,0.0,86,0.00,,,0.00,,2013-07-15 01:53:00,
2013-07-14 22:02:00,75.0,71.0,30.24,West,273,0.0,0.0,86,0.00,,,0.00,,2013-07-15 02:02:00,
2013-07-14 22:11:00,75.0,71.0,30.24,West,273,0.0,0.0,86,0.00,,,0.00,,2013-07-15 02:11:00,
2013-07-14 23:32:00,70.0,68.0,30.25,West,277,0.0,2.0,92,0.00,,,0.00,,2013-07-15 03:32:00,
2013-07-14 23:43:00,70.0,68.0,30.24,West,277,0.0,0.0,92,0.00,,,0.00,,2013-07-15 03:43:00,
2013-07-14 23:53:00,70.0,68.0,30.24,West,277,0.0,0.0,92,0.00,,,0.00,,2013-07-15 03:53:00,